TELSTAR 14R

Last updated on Mon Oct 14 2024 00:02:38 GMT+0000 (Coordinated Universal Time)

1 37602U 11021A 24287.32255096 -.00000281 00000+0 00000+0 0 9998 2 37602 0.0181 198.6513 0000505 59.7944 177.0746 1.00270414 49656
UTC large
Height (km)
Speed (km/s)
/
Latitude / Longitude
Inclination (degrees)
Orbital Period (minutes)
Azimuth
Elevation
Range (km)
Doppler Factor

Next 0 passes for location: London (51.5072 / 0.1276)

Sorry there are no passes over London.